Fayetteville, GA

5:30 PM EST on February 11, 2016 (GMT -0500)
Peachtree City-Falcon

Weather History for KFFC - December, 2012

Change the Weather History Date:

Monday, December 31, 2012

  Actual Average Record
Temperature  
Mean Temperature 40 °F 42 °F  
Max Temperature 53 °F 53 °F - ()
Min Temperature 27 °F 31 °F - ()
Degree Days  
Heating Degree Days 25 23  
Month to date heating degree days 640  
Since 1 July heating degree days 1181  
Cooling Degree Days 0 0  
Month to date cooling degree days 0  
Year to date cooling degree days 1653  
Moisture  
Dew Point 30 °F    
Average Humidity 64    
Maximum Humidity 92    
Minimum Humidity 37    
Precipitation  
Precipitation 0.00 in 0.11 in - ()
Month to date precipitation 4.14  
Year to date precipitation 49.99  
Sea Level Pressure  
Sea Level Pressure 30.32 in    
Wind  
Wind Speed 1 mph (SW)    
Max Wind Speed 6 mph    
Max Gust Speed -    
Visibility 10 miles    
Events      
T = Trace of Precipitation, MM = Missing Value Source: NWS Daily Summary

Daily Weather History Graph

Daily Weather History Graph

Search for Another Location

Airport or City:

Trip Planner

Search our weather history database for the weather conditions in past years. The results will help you decide how hot, cold, wet, or windy it might be!

Date:

Astronomy

Dec. 31, 2012 Rise Set
Actual Time 7:42 AM EST 5:41 PM EST
Civil Twilight 7:14 AM EST 6:08 PM EST
Nautical Twilight 6:43 AM EST 6:39 PM EST
Astronomical Twilight 6:13 AM EST 7:09 PM EST
Moon 9:00 PM EST (12/31) 9:32 AM EST (12/31)
Length of Visible Light 10h 54m
Length of Day
9h 59m
Waning Gibbous, 90% of the Moon is Illuminated
Dec 31
Waning Gibbous
Jan 4
Last Quarter
Jan 11
New
Jan 18
First Quarter
Jan 26
Full

Hourly Weather History & Observations

Time (EST) Temp. Windchill Dew Point Humidity Pressure Visibility Wind Dir Wind Speed Gust Speed Precip Events Conditions
12:53 AM 28.0 °F - 25.0 °F 88% 30.40 in 10.0 mi Calm Calm - N/A   Clear
1:53 AM 27.0 °F - 24.1 °F 89% 30.40 in 10.0 mi Calm Calm - N/A   Clear
2:53 AM 28.0 °F - 25.0 °F 88% 30.40 in 10.0 mi Calm Calm - N/A   Clear
3:53 AM 30.0 °F - 27.0 °F 88% 30.41 in 10.0 mi Calm Calm - N/A   Clear
4:53 AM 30.0 °F - 28.0 °F 92% 30.40 in 10.0 mi Calm Calm - N/A   Clear
5:53 AM 30.0 °F - 28.0 °F 92% 30.40 in 9.0 mi Calm Calm - N/A   Clear
7:53 AM 28.0 °F - 26.1 °F 92% 30.41 in 6.0 mi Calm Calm - N/A   Clear
8:53 AM 32.0 °F - 28.9 °F 88% 30.41 in 8.0 mi Calm Calm - N/A   Clear
9:53 AM 39.0 °F - 28.0 °F 65% 30.43 in 10.0 mi Calm Calm - N/A   Clear
10:53 AM 46.0 °F 43.9 °F 27.0 °F 47% 30.41 in 10.0 mi Variable 4.6 mph - N/A   Clear
11:53 AM 48.9 °F - 27.0 °F 43% 30.36 in 10.0 mi Variable 5.8 mph - N/A   Clear
12:53 PM 52.0 °F - 28.0 °F 40% 30.33 in 10.0 mi Calm Calm - N/A   Overcast
1:53 PM 53.1 °F - 27.0 °F 37% 30.29 in 10.0 mi Calm Calm - N/A   Overcast
2:53 PM 53.1 °F - 27.0 °F 37% 30.26 in 10.0 mi SW 5.8 mph - N/A   Overcast
3:53 PM 53.1 °F - 28.9 °F 40% 30.27 in 10.0 mi Variable 4.6 mph - N/A   Overcast
4:53 PM 52.0 °F - 28.9 °F 41% 30.27 in 10.0 mi West 4.6 mph - N/A   Overcast
5:53 PM 51.1 °F - 30.9 °F 46% 30.26 in 10.0 mi Calm Calm - N/A   Overcast
6:53 PM 48.9 °F - 34.0 °F 56% 30.26 in 10.0 mi Calm Calm - N/A   Overcast
7:53 PM 48.0 °F - 36.0 °F 63% 30.25 in 10.0 mi Calm Calm - N/A   Overcast
8:53 PM 48.0 °F - 37.9 °F 68% 30.23 in 10.0 mi Calm Calm - N/A   Overcast
9:53 PM 50.0 °F - 35.1 °F 57% 30.21 in 10.0 mi Calm Calm - N/A   Overcast
10:53 PM 50.0 °F - 36.0 °F 59% 30.19 in 10.0 mi Calm Calm - N/A   Overcast
11:53 PM 50.0 °F - 37.9 °F 63% 30.16 in 10.0 mi SSE 4.6 mph - N/A   Clear